Erzurum, Turkey

11:20 PM +03 on February 19, 2018 (GMT +0300)
Erzurum

Weather History for LTCE - December, 2013

Change the Weather History Date:

Saturday, December 21, 2013

  Actual Average Record
Temperature  
Mean Temperature -0 °F -  
Max Temperature 12 °F 27 °F 43 °F (2017)
Min Temperature -13 °F 13 °F -18 °F (1997)
Degree Days  
Heating Degree Days 66    
Moisture  
Dew Point -6 °F    
Average Humidity 87    
Maximum Humidity 100    
Minimum Humidity 79    
Precipitation  
Precipitation 0.00 in 0.03 in - ()
Sea Level Pressure  
Sea Level Pressure 30.45 in    
Wind  
Wind Speed 1 mph ()    
Max Wind Speed 4 mph    
Max Gust Speed -    
Visibility 2.0 miles    
Events      
Averages and records for this station are not official NWS values.
T = Trace of Precipitation, MM = Missing Value Source: Averaged Metar Reports

Daily Weather History Graph

Daily Weather History Graph

Search for Another Location

Airport or City:

Trip Planner

Search our weather history database for the weather conditions in past years. The results will help you decide how hot, cold, wet, or windy it might be!

Date:

Astronomy

Dec. 21, 2013 Rise Set
Actual Time 6:33 AM EET 3:53 PM EET
Civil Twilight 6:02 AM EET 4:24 PM EET
Nautical Twilight 5:28 AM EET 4:58 PM EET
Astronomical Twilight 4:55 AM EET 5:31 PM EET
Moon 7:49 PM EET (12/21) 8:48 AM EET (12/21)
Length of Visible Light 10h 21m
Length of Day
9h 20m
Waning Gibbous, 86% of the Moon is Illuminated
Dec 21
Waning Gibbous
Dec 25
Last Quarter
Jan 1
New
Jan 8
First Quarter
Jan 16
Full

Hourly Weather History & Observations

Time (EET) Temp. Windchill Dew Point Humidity Pressure Visibility Wind Dir Wind Speed Gust Speed Precip Events Conditions
12:20 AM -11.2 °F - -14.8 °F 84% 30.45 in - Calm Calm - N/A   Mist
12:50 AM -9.4 °F - -13.0 °F 84% 30.45 in - Calm Calm - N/A   Mist
1:20 AM -13.0 °F - -16.6 °F 84% 30.45 in - Calm Calm - N/A   Mist
1:50 AM -9.4 °F - -13.0 °F 84% 30.45 in - Calm Calm - N/A   Mist
2:00 AM -10 °F - -12 °F 87%  in 2 mi Calm Calm - -   Mist
2:20 AM -11.2 °F - -14.8 °F 84% 30.45 in - Calm Calm - N/A   Mist
2:50 AM -11.2 °F - -14.8 °F 84% 30.45 in 2.2 mi Calm Calm - N/A   Mist
3:20 AM -11.2 °F - -14.8 °F 84% 30.45 in 2.2 mi ENE 1.2 mph - N/A   Mist
3:50 AM -13.0 °F - -16.6 °F 84% 30.45 in 2.2 mi Variable 2.3 mph - N/A   Mist
4:20 AM -13.0 °F - -16.6 °F 84% 30.42 in 2.2 mi Calm Calm - N/A   Mist
4:50 AM -11.2 °F - -14.8 °F 84% 30.45 in 2.2 mi SE 2.3 mph - N/A   Mist
5:00 AM -12 °F - -12 °F 100%  in 2 mi SE 2.3 mph - -   Mist
5:20 AM -9.4 °F - -13.0 °F 84% 30.45 in - Calm Calm - N/A   Mist
5:50 AM -11.2 °F - -14.8 °F 84% 30.45 in - Calm Calm - N/A   Mist
6:20 AM -9.4 °F - -13.0 °F 84% 30.45 in 1.6 mi Calm Calm - N/A   Mist
6:50 AM -11.2 °F - -14.8 °F 84% 30.45 in 1.0 mi Calm Calm - N/A   Mist
7:20 AM -11.2 °F - -14.8 °F 84% 30.45 in 1.0 mi Calm Calm - N/A   Mist
7:50 AM -7.6 °F - -9.4 °F 92% 30.45 in 1.0 mi Calm Calm - N/A   Mist
8:00 AM -7 °F - -9 °F 88%  in 1 mi Calm Calm - -   Mist
8:20 AM -4.0 °F - -7.6 °F 85% 30.48 in 1.0 mi Calm Calm - N/A   Mist
8:50 AM -4.0 °F - -7.6 °F 85% 30.48 in 1.0 mi Variable 1.2 mph - N/A   Mist
9:20 AM -0.4 °F - -4.0 °F 85% 30.48 in 1.0 mi Calm Calm - N/A   Mist
9:50 AM -0.4 °F - -2.2 °F 92% 30.48 in 1.0 mi Calm Calm - N/A   Mist
10:20 AM 1.4 °F - -2.2 °F 85% 30.48 in 1.0 mi ENE 2.3 mph - N/A   Mist
10:50 AM 5.0 °F - 1.4 °F 85% 30.45 in 1.0 mi North 2.3 mph - N/A   Mist
11:00 AM 5 °F - 4 °F 92%  in 1 mi North 2.3 mph - -   Mist
11:20 AM 8.6 °F - 6.8 °F 92% 30.45 in 1.0 mi Calm Calm - N/A   Mist
11:50 AM 8.6 °F - 5.0 °F 85% 30.42 in 1.1 mi Variable 2.3 mph - N/A   Mist
12:20 PM 8.6 °F - 6.8 °F 92% 30.42 in 1.1 mi Variable 1.2 mph - N/A   Mist
12:50 PM 12.2 °F - 8.6 °F 85% 30.42 in 1.1 mi Calm Calm - N/A   Mist
1:20 PM 12.2 °F - 8.6 °F 85% 30.42 in 1.2 mi NNE 2.3 mph - N/A   Mist
1:50 PM 10.4 °F - 6.8 °F 85% 30.42 in 1.2 mi ENE 2.3 mph - N/A   Mist
2:00 PM 11 °F - 10 °F 92%  in 1 mi ENE 2.3 mph - -   Mist
2:20 PM 10.4 °F - 6.8 °F 85% 30.42 in 1.2 mi ENE 2.3 mph - N/A   Mist
2:50 PM 10.4 °F - 5.0 °F 79% 30.42 in 1.2 mi ENE 2.3 mph - N/A   Mist
3:20 PM 8.6 °F - 5.0 °F 85% 30.42 in 1.2 mi East 2.3 mph - N/A   Mist
3:50 PM 6.8 °F - 3.2 °F 85% 30.42 in 1.2 mi Calm Calm - N/A   Mist
4:20 PM 3.2 °F - -0.4 °F 85% 30.45 in - Calm Calm - N/A   Mist
4:50 PM 3.2 °F - 1.4 °F 92% 30.45 in 2.2 mi Calm Calm - N/A   Mist
5:00 PM 3 °F - 2 °F 92%  in 2 mi Calm Calm - -   Mist
5:20 PM 1.4 °F - -0.4 °F 92% 30.45 in 2.2 mi Variable 1.2 mph - N/A   Mist
5:50 PM -2.2 °F - -4.0 °F 92% 30.45 in 3.7 mi Calm Calm - N/A   Unknown
6:20 PM -4.0 °F - -5.8 °F 92% 30.45 in 3.7 mi Variable 1.2 mph - N/A   Unknown
6:50 PM -5.8 °F - -7.6 °F 92% 30.45 in 3.7 mi Calm Calm - N/A   Unknown
7:20 PM -2.2 °F -10.4 °F -4.0 °F 92% 30.45 in 3.7 mi West 3.5 mph - N/A   Unknown
7:50 PM -4.0 °F - -5.8 °F 92% 30.45 in 3.7 mi Variable 2.3 mph - N/A   Unknown
8:00 PM -3 °F - -3 °F 97%  in 4 mi SW 2.3 mph - -   Mist
8:20 PM -4.0 °F - -7.6 °F 85% 30.45 in 3.7 mi WNW 2.3 mph - N/A   Unknown
8:50 PM -7.6 °F - -11.2 °F 84% 30.45 in 3.7 mi Variable 1.2 mph - N/A   Unknown
9:20 PM -5.8 °F - -7.6 °F 92% 30.45 in - SW 2.3 mph - N/A   Mist
9:50 PM -9.4 °F - -13.0 °F 84% 30.45 in 2.8 mi Variable 1.2 mph - N/A   Mist
10:20 PM -5.8 °F - -9.4 °F 84% 30.45 in 2.8 mi Calm Calm - N/A   Mist
10:50 PM -7.6 °F - -11.2 °F 84% 30.45 in 2.8 mi NW 1.2 mph - N/A   Mist
11:00 PM -7 °F - -7 °F 97%  in 3 mi NW 1.2 mph - -   Mist
11:20 PM -7.6 °F - -11.2 °F 84% 30.45 in 2.8 mi Calm Calm - N/A   Mist
11:50 PM -7.6 °F - -11.2 °F 84% 30.45 in 2.8 mi Calm Calm - N/A   Mist